Dewpoint
73 72 71 71 71 69 67 65 54 60 59 54 54 56 55 63 62 61 60 63 61 65 66 66 63 63 63 61 60 63 64 58 57 50 47 63 71 71 72 70 71 72 71 72 73 73 73 73 74 74 75 76 76 77 76 76 76 76 75 75 75 76 76 76 76 76 76 75 75 75 75 75 74 75 74 74 74 74 74 74 74 74 74 74 74 74 74 74 74 75 75 74 74 74 74 75 75
72 71 71 71 69 69 64 65 55 56 57 54 54 59 59 62 62 60 59 61 63 64 67 66 65 65 66 63 63 61 62 65 66 65 67 70 72 72 71 71 71 71 71 72 73 73 73 73 74 74 75 75 76 76 76 76 76 75 75 76 76 76 76 76 76 76 76 76 75 75 75 75 75 75 74 74 74 75 74 74 74 75 75 75 74 74 75 75 75 75 74 74 74 74 74 74 75
72 71 70 71 69 69 66 65 55 54 52 50 54 58 63 61 60 62 63 64 65 65 66 66 66 66 64 64 60 62 58 65 65 66 68 70 69 70 72 72 71 71 72 72 73 73 73 74 73 75 75 76 76 76 76 76 75 76 76 76 76 76 76 76 76 76 76 75 75 75 75 75 75 75 74 74 74 75 74 74 74 75 75 75 75 74 74 74 75 75 75 74 74 74 75 74 74
72 71 69 69 64 67 61 60 56 55 52 53 53 60 61 61 61 63 64 65 65 65 66 65 63 65 65 61 62 63 63 63 65 67 67 69 69 72 72 72 72 72 72 73 74 73 73 74 75 75 74 76 76 76 76 75 76 76 76 76 76 76 76 76 76 75 75 75 75 75 75 74 74 75 75 74 75 75 75 74 74 75 75 75 75 74 75 75 75 74 75 74 75 74 74 74 75
71 71 70 68 64 60 61 59 58 57 53 55 53 60 61 62 62 63 64 66 67 66 66 65 63 65 67 64 65 60 63 65 66 67 68 70 72 73 73 73 72 72 72 73 73 73 74 76 76 76 76 76 76 76 76 76 76 76 76 76 76 76 76 76 75 75 75 75 74 75 75 74 75 75 74 74 75 75 74 74 74 74 75 75 75 75 75 75 74 74 74 74 75 74 74 74 75
70 69 70 69 63 67 63 57 56 56 58 60 57 59 62 63 63 64 65 66 67 66 66 66 62 62 63 64 65 64 65 62 66 68 69 70 72 73 73 73 73 73 73 73 73 73 74 77 76 76 76 76 76 76 76 76 76 76 76 76 76 75 76 76 75 75 75 75 74 74 75 75 74 74 75 75 75 74 75 74 75 74 74 75 75 75 75 74 74 74 74 74 74 74 74 74 74
67 68 69 68 66 66 57 56 55 56 58 61 60 62 62 64 64 64 64 64 65 66 67 63 63 62 61 64 65 66 68 67 67 68 70 71 72 73 73 73 73 73 74 74 74 74 75 76 76 77 77 76 76 77 77 76 76 76 76 76 76 75 75 75 75 75 75 74 74 75 74 75 74 74 74 75 74 74 75 74 74 74 74 74 74 74 74 73 74 74 74 74 74 74 74 74 74
73 67 66 62 58 60 56 56 56 57 59 61 62 62 63 64 65 64 64 62 62 64 64 63 64 64 62 65 62 67 69 70 70 71 72 72 72 73 73 73 73 73 73 74 75 75 76 76 76 76 76 76 77 77 77 76 76 76 76 75 75 75 75 75 75 75 75 75 74 75 75 74 74 74 74 75 75 74 74 75 74 74 74 74 74 74 74 74 74 74 74 73 74 74 74 74 74
71 69 68 62 57 60 57 56 56 61 60 62 63 64 65 65 66 65 64 65 65 65 63 62 62 60 63 64 64 68 70 71 71 72 72 72 72 72 72 72 72 73 74 74 75 75 76 76 76 77 77 77 77 77 76 76 76 76 76 76 75 75 75 75 75 75 75 75 75 75 74 74 74 74 75 75 75 75 74 74 74 74 74 74 74 74 74 74 74 74 74 74 74 74 74 74 74
68 66 60 60 61 55 55 55 55 59 61 62 63 64 65 66 65 65 64 63 64 64 64 64 63 63 64 63 65 67 69 71 71 71 71 71 72 72 72 72 73 73 74 74 75 75 76 76 76 77 76 76 77 76 76 76 76 76 76 75 76 76 75 75 75 75 75 75 74 74 74 75 74 74 75 75 74 74 74 74 74 74 74 73 74 74 74 74 74 74 74 73 74 74 73 73 74
64 67 68 60 56 54 52 53 58 61 61 63 64 65 66 67 66 65 66 65 66 63 63 64 63 63 63 64 66 70 71 70 70 69 71 71 72 71 71 72 73 73 74 74 75 75 76 75 76 76 77 76 76 76 76 76 76 76 76 75 76 75 75 75 75 75 75 74 75 75 75 75 75 75 74 74 75 74 74 74 74 74 74 73 74 74 74 74 74 74 74 74 74 74 74 74 74
63 63 64 57 55 52 53 55 58 59 62 63 63 65 67 66 66 64 63 62 64 63 62 63 62 64 62 63 65 69 70 69 69 71 71 71 71 71 71 72 73 73 74 74 75 75 75 75 75 76 76 76 76 76 76 76 76 75 75 75 75 75 75 75 75 75 75 75 75 75 74 74 75 75 75 75 75 74 75 74 74 74 74 73 74 73 74 75 74 74 74 73 74 74 74 74 74
64 63 60 56 54 55 56 57 58 59 60 62 63 65 68 66 64 64 65 65 65 62 62 66 64 65 61 63 68 68 68 69 70 70 71 71 71 71 72 72 73 73 74 75 74 75 75 75 75 76 76 76 76 76 76 76 75 75 75 75 75 75 75 75 75 75 75 75 75 74 74 74 75 75 75 75 75 75 74 74 74 74 74 74 73 74 74 75 75 74 74 74 74 73 73 74 74
64 64 61 54 56 56 57 56 58 58 58 64 66 67 67 66 67 67 65 63 63 64 64 64 64 64 63 65 65 66 68 69 70 70 70 71 72 72 72 72 73 74 74 74 74 75 75 75 75 75 75 75 76 76 76 76 75 75 75 76 75 75 75 75 75 75 75 75 75 75 75 74 75 74 74 74 74 74 75 74 74 74 74 74 73 74 74 74 74 74 73 74 74 73 74 74 74
64 65 62 58 56 56 58 55 58 58 58 64 66 66 66 67 68 67 65 63 65 70 66 65 64 62 61 63 63 65 68 69 70 70 71 71 72 72 72 73 73 74 74 74 74 74 74 75 75 75 76 75 75 75 75 75 75 75 75 76 76 75 75 75 76 76 76 75 75 75 75 74 74 74 74 74 73 75 75 74 74 74 74 73 74 74 74 74 74 74 74 74 73 74 74 74 74
65 64 63 57 55 54 55 57 59 58 59 64 66 67 66 67 69 66 67 69 67 68 70 63 64 65 63 63 65 67 69 69 69 70 71 71 72 72 73 73 73 74 74 74 74 74 75 75 75 75 75 75 75 75 75 75 75 75 75 75 76 76 75 75 75 75 75 76 75 74 75 76 75 74 75 75 74 75 75 74 74 74 74 74 74 74 75 75 75 74 74 73 74 74 74 74 74
66 64 59 57 54 54 53 57 57 53 61 64 66 66 63 64 68 68 71 71 65 67 68 69 66 67 64 65 67 68 69 69 70 70 71 71 71 72 72 73 73 73 74 74 74 74 74 74 74 74 75 75 75 75 75 75 76 75 75 75 76 76 76 75 75 75 75 75 76 75 76 75 75 75 76 75 75 75 75 74 75 74 74 75 74 74 74 74 74 74 74 74 74 74 74 74 74
61 61 58 56 56 54 55 56 58 61 61 63 65 66 65 63 67 68 70 67 67 66 66 67 66 65 66 67 68 68 68 68 70 70 70 70 70 70 71 72 72 72 73 73 74 74 74 74 74 74 74 75 75 75 75 75 75 75 75 75 76 76 75 76 77 76 76 76 76 76 76 76 75 76 77 76 77 75 75 74 74 74 75 75 75 74 74 74 74 73 74 74 74 74 75 74 75
59 58 58 55 55 56 57 59 63 61 62 64 64 66 65 64 67 68 65 64 65 63 64 64 64 65 66 67 67 67 68 69 69 69 69 69 69 69 70 71 71 72 72 73 73 74 74 74 74 74 74 75 75 75 75 75 75 75 75 75 76 75 76 77 76 76 75 75 76 76 75 75 75 76 76 76 77 75 75 74 74 74 74 75 75 74 74 74 74 73 72 73 74 76 75 75 74
59 58 54 56 57 56 58 62 63 64 64 64 64 66 66 67 67 68 64 64 64 62 62 63 63 64 65 66 66 67 67 68 69 69 69 69 69 69 69 70 70 71 71 72 73 74 74 74 74 74 75 75 75 75 75 75 75 75 75 75 75 75 75 76 75 75 74 75 74 75 75 75 75 75 75 76 77 75 75 75 75 75 75 75 75 76 76 74 76 75 75 76 77 76 75 75 74
57 58 56 56 57 56 57 62 63 65 64 64 65 66 66 67 68 68 65 62 62 63 62 62 63 64 65 65 66 66 67 68 68 68 68 68 68 69 69 69 70 71 71 72 73 73 74 74 74 74 75 75 75 75 75 75 75 75 75 75 75 75 75 74 74 74 74 74 74 75 75 75 74 74 74 74 74 75 75 75 74 75 76 76 76 74 74 74 75 74 74 75 75 75 75 74 74
54 58 58 57 56 52 57 64 65 65 65 65 65 64 64 68 67 67 64 60 60 63 62 63 64 65 65 65 65 66 67 67 67 67 67 68 68 68 69 69 70 70 72 71 72 73 73 74 74 75 75 75 75 75 75 76 75 74 75 75 75 75 74 74 74 74 74 74 74 75 75 74 74 74 74 74 74 74 74 74 74 74 75 75 76 73 73 73 73 73 74 74 74 75 75 74 74
49 51 51 53 54 53 60 64 65 65 64 64 64 65 67 65 64 67 64 63 67 66 63 63 64 65 65 65 65 65 66 66 67 67 67 67 67 68 68 69 69 70 71 71 72 73 73 74 74 74 74 75 75 75 75 75 75 75 75 75 74 74 74 74 74 74 74 74 75 75 74 74 74 74 74 74 74 74 74 74 74 74 74 75 75 74 74 74 74 73 74 74 74 74 74 74 75
50 49 51 51 49 49 57 64 65 64 64 64 65 66 65 64 63 67 64 69 69 67 64 63 64 65 65 65 65 65 65 66 66 67 67 67 67 67 68 68 69 70 70 71 72 72 73 73 74 74 74 75 75 75 75 75 74 74 75 76 75 75 74 74 74 74 74 75 75 76 75 74 74 74 74 74 74 74 75 74 74 74 74 75 75 74 74 74 74 74 74 74 74 74 73 72 73
49 49 51 51 51 51 54 64 64 64 64 65 65 64 64 65 64 66 64 67 68 67 66 63 64 64 64 64 64 64 65 65 66 66 67 67 67 67 67 68 69 69 69 70 72 72 73 73 74 74 74 74 74 75 75 75 74 74 75 75 74 76 74 74 74 75 74 75 75 76 76 74 74 74 74 74 74 74 74 74 74 74 73 74 75 74 74 73 73 74 74 74 74 74 73 72 72
49 49 49 48 48 46 55 64 64 64 64 65 63 63 65 65 66 64 66 68 66 68 65 63 64 63 64 64 64 64 64 64 65 66 66 66 66 66 67 67 68 69 69 70 71 72 73 74 73 74 74 74 74 74 75 74 74 74 74 74 74 75 74 74 75 74 74 74 74 75 76 74 74 74 74 74 74 74 74 75 75 74 74 74 75 74 74 74 74 74 74 74 74 74 74 73 74
46 42 41 44 44 40 56 63 64 64 64 64 62 63 64 66 63 62 67 66 66 66 64 63 63 63 63 63 63 64 64 64 64 65 66 65 65 66 66 67 68 68 70 70 71 72 73 73 73 74 74 74 74 74 74 74 74 74 74 74 74 75 74 75 75 75 75 74 74 75 76 76 75 74 74 74 73 73 74 74 73 73 74 74 75 74 75 75 74 74 74 74 74 74 73 73 74
35 35 31 31 28 43 51 63 64 63 63 63 63 63 64 65 63 61 65 65 65 64 62 62 62 62 63 63 63 64 64 64 64 65 64 64 65 65 66 66 67 68 69 70 71 72 72 72 72 73 73 74 74 74 74 74 74 74 74 74 74 74 74 74 74 75 75 74 74 74 75 75 76 75 74 74 74 73 73 74 74 73 74 73 74 74 74 75 75 75 75 75 75 74 74 75 75
37 35 31 30 54 59 61 62 63 62 62 63 63 60 60 62 61 64 64 65 64 63 62 62 62 62 62 62 62 63 63 63 64 64 64 64 64 65 65 66 67 68 69 70 71 72 72 72 72 73 73 74 73 73 74 73 74 74 74 74 74 75 74 74 74 74 75 75 74 74 74 75 77 75 74 74 76 73 73 73 73 74 73 73 74 74 75 75 75 75 74 75 74 74 74 73 75
35 33 30 23 55 55 60 61 62 61 62 63 60 52 55 59 61 63 64 64 63 62 61 62 62 62 62 62 62 63 63 63 63 64 64 64 64 64 65 65 67 68 69 70 70 71 72 72 72 72 72 73 73 73 73 73 73 73 74 74 75 75 74 74 74 74 75 75 75 74 74 75 76 75 74 74 74 73 72 72 72 72 73 74 75 76 75 75 74 74 74 73 76 74 72 73 73
30 31 23 24 45 44 58 61 61 59 62 62 58 49 50 56 60 62 64 64 63 61 61 61 62 62 62 62 62 62 62 63 63 63 64 64 64 64 64 65 67 68 69 70 70 70 71 71 71 72 73 72 73 73 73 73 73 73 74 73 74 74 74 74 74 74 74 74 74 74 74 74 76 75 75 74 74 73 72 72 72 72 73 74 75 76 76 75 74 74 74 72 73 73 73 73 73
27 30 29 25 37 29 55 60 60 58 61 62 57 51 51 53 60 63 63 63 62 61 61 61 61 62 62 62 62 62 62 62 63 63 63 64 64 64 64 65 67 68 69 69 70 70 71 70 72 71 72 72 73 72 73 73 73 73 73 74 74 74 74 73 73 73 73 74 74 74 74 74 76 75 75 74 73 72 72 71 72 73 74 75 75 76 75 74 74 74 75 73 73 71 73 71 71
30 28 29 23 19 27 56 58 60 59 60 61 58 50 53 53 60 62 63 63 62 61 61 61 61 61 62 62 61 62 62 62 62 63 63 63 64 64 64 65 66 68 69 69 69 70 70 70 72 71 71 72 72 72 73 73 73 73 73 74 73 74 73 73 73 73 73 73 74 73 74 74 76 74 74 74 73 72 72 72 72 73 75 75 75 75 76 75 75 74 75 76 74 73 72 69 69
31 27 27 26 19 39 53 50 60 59 60 59 60 57 55 54 60 62 62 62 62 61 61 61 61 61 61 62 61 61 62 62 62 62 62 63 64 64 65 67 66 68 68 69 69 69 70 70 71 71 71 72 72 72 72 72 73 73 73 73 74 73 73 73 73 73 73 73 74 74 74 75 76 75 74 74 73 73 72 72 73 74 76 75 75 75 75 75 74 74 74 74 75 73 72 71 70
31 28 26 23 22 27 40 53 57 58 59 58 59 58 57 56 60 61 62 62 62 61 61 61 61 61 61 61 61 61 61 61 61 62 62 63 63 64 64 65 66 67 68 69 69 70 70 70 71 71 71 71 72 72 73 72 73 73 73 73 73 73 73 73 73 73 73 74 74 75 75 76 77 75 74 75 73 74 73 74 74 75 76 75 75 75 74 75 76 74 74 74 75 74 72 72 72
27 25 25 23 22 20 17 32 36 58 57 56 57 56 56 56 59 60 61 62 61 61 61 61 61 61 61 61 61 61 61 61 62 62 62 63 63 63 64 65 66 67 68 69 69 69 70 70 70 71 72 71 72 72 72 72 72 72 72 72 72 73 72 73 73 73 73 74 74 75 76 76 77 76 75 74 74 74 74 74 75 75 76 75 75 74 74 74 74 73 74 75 74 73 73 74 71
27 27 26 27 25 25 26 23 20 58 57 56 56 56 56 56 57 60 60 61 61 61 60 61 61 61 60 60 61 60 61 61 62 62 62 62 63 63 63 65 65 67 68 68 69 69 69 70 70 70 71 72 71 71 71 71 71 71 71 71 71 71 71 72 73 73 73 73 75 76 76 76 76 76 75 75 74 75 74 75 75 75 75 75 74 74 73 73 74 76 75 75 74 71 70 69 69
29 28 28 27 26 25 26 25 25 52 56 55 56 55 55 55 56 59 60 60 60 61 60 60 60 60 60 60 60 60 61 61 62 62 62 62 62 62 63 64 66 66 67 68 68 69 69 69 70 70 71 71 71 71 71 71 71 71 71 71 71 71 71 72 72 73 73 74 75 76 77 76 76 76 76 75 75 75 74 75 75 75 75 75 74 74 73 76 75 74 73 73 73 71 70 68 67
29 28 28 26 26 27 26 25 24 45 55 51 52 54 54 54 55 57 59 59 60 61 60 60 60 60 60 60 60 61 61 61 61 61 62 62 62 62 62 64 65 65 66 67 68 68 69 69 70 70 71 71 71 71 71 71 71 72 71 71 71 70 71 72 72 73 74 74 75 76 77 76 76 76 76 76 75 75 75 75 75 75 75 75 75 74 74 74 73 74 73 72 71 72 73 72 69
28 27 28 26 27 23 22 24 20 45 52 47 45 47 48 50 54 56 59 59 60 61 61 60 60 60 60 60 60 61 61 61 61 61 61 61 62 62 62 63 64 65 66 66 67 68 68 70 70 70 71 71 71 71 72 71 72 72 72 71 71 71 70 72 72 73 73 74 75 76 76 77 76 76 76 75 75 75 75 75 75 74 74 75 74 73 73 73 73 74 74 75 71 68 68 68 73
30 28 27 27 26 24 24 24 22 20 37 40 44 43 48 53 53 55 57 59 60 60 61 61 61 61 61 61 61 61 61 61 61 61 61 61 61 61 62 63 64 64 65 66 67 67 68 69 70 70 71 71 71 72 72 71 72 71 71 71 71 70 71 71 70 71 73 74 74 75 75 76 76 76 76 75 75 75 75 75 75 74 74 74 74 73 73 73 73 74 74 75 72 69 68 70 71
30 29 28 27 26 26 25 23 19 19 19 40 36 36 38 47 54 54 57 58 58 59 59 60 60 60 60 60 60 61 62 62 61 61 62 61 61 61 62 63 63 64 64 65 66 67 68 69 70 70 71 71 71 72 72 71 71 70 69 69 68 68 68 68 69 69 71 72 73 74 75 76 76 76 76 76 75 75 75 75 75 74 74 74 75 74 73 74 74 74 75 74 74 71 70 70 69
30 30 29 28 27 26 25 23 21 22 21 33 41 33 30 45 53 56 57 57 57 58 58 59 60 60 60 60 60 60 61 61 62 62 62 62 61 61 61 62 63 63 64 65 66 67 67 68 69 70 70 71 71 71 72 71 71 70 69 68 68 68 67 68 69 70 71 72 73 74 75 76 76 76 76 76 75 75 75 75 75 75 74 74 75 74 74 74 74 74 75 74 74 75 71 69 70
29 31 28 28 27 26 25 23 20 22 32 36 40 40 36 40 46 56 57 57 57 57 58 58 59 60 60 61 60 61 61 61 61 61 62 62 62 61 61 62 62 63 64 64 65 66 67 68 69 70 70 71 71 71 71 71 70 70 69 68 68 68 67 68 69 70 72 73 73 74 74 75 76 76 76 76 76 75 75 75 75 75 75 74 75 75 74 74 75 76 76 75 74 75 72 70 70
28 27 25 26 26 26 25 21 20 22 23 21 41 44 37 39 45 52 57 56 56 56 57 58 58 59 60 60 61 61 61 61 61 61 61 62 62 61 61 61 62 63 63 64 65 66 67 68 69 70 70 70 70 71 71 71 71 70 69 68 68 68 67 68 69 71 72 73 73 73 74 74 75 76 76 76 76 76 76 75 75 75 75 75 76 76 75 75 75 75 75 75 74 75 73 71 72
28 26 28 24 24 26 21 19 20 25 22 24 36 38 35 34 38 53 56 56 56 56 57 57 58 58 59 59 60 61 61 62 62 62 61 62 62 62 62 61 62 62 63 64 64 65 67 68 69 69 69 70 70 70 71 70 70 71 69 68 68 68 68 68 70 70 71 73 72 73 73 74 75 75 75 76 76 76 76 76 75 75 75 75 76 76 76 76 76 76 75 75 74 74 74 74 72
26 26 26 25 28 27 35 33 28 22 17 22 23 32 32 21 28 51 53 55 56 56 57 58 58 58 59 59 60 60 61 61 62 62 62 62 62 62 62 61 62 62 63 63 63 65 66 67 68 68 69 69 70 70 70 70 70 70 69 68 68 67 67 67 69 70 71 72 72 72 73 73 74 74 75 75 75 75 76 76 76 75 75 76 76 76 76 76 75 75 75 75 75 74 74 75 75
26 24 20 20 25 28 25 28 28 17 18 24 27 21 25 23 30 45 50 50 49 52 56 57 57 58 58 59 59 59 60 61 62 62 62 62 62 62 62 62 61 62 62 62 63 64 66 67 68 68 68 69 69 70 70 70 69 70 69 68 68 67 66 66 68 69 70 71 71 71 72 73 73 74 74 74 74 74 75 76 76 76 76 75 75 76 76 76 75 75 75 75 75 74 74 75 74
24 25 25 21 21 20 18 19 17 17 16 21 22 17 15 24 44 50 52 53 52 52 53 54 56 57 59 59 59 59 59 60 61 62 62 62 62 62 61 62 62 62 62 62 62 63 65 67 68 68 68 69 69 69 69 70 69 69 69 68 68 68 67 66 67 68 70 71 71 71 72 72 73 73 73 73 74 74 75 75 76 76 75 76 76 76 76 76 75 75 75 74 75 74 74 74 74
23 23 23 21 16 16 15 21 19 20 19 20 21 23 20 25 40 52 52 53 52 52 53 53 54 55 58 59 60 59 59 59 61 61 62 62 62 62 62 62 62 62 61 61 62 63 64 66 67 67 68 68 69 69 69 69 69 69 69 68 68 68 66 66 66 67 70 71 71 71 71 72 72 72 73 73 73 74 74 75 75 75 76 76 76 76 76 76 75 75 74 75 74 75 75 75 75
23 23 21 23 21 18 16 19 16 15 17 20 23 15 16 41 47 51 52 52 51 52 52 53 53 54 54 58 59 59 59 59 60 61 61 62 62 62 62 62 62 61 61 61 61 63 64 65 67 68 68 68 68 69 69 69 69 69 69 68 68 67 66 66 66 68 69 70 71 71 71 72 72 72 73 73 74 74 74 75 75 75 75 75 76 76 75 75 76 75 75 75 75 75 75 75 74
17 21 22 20 19 27 18 21 20 21 17 17 20 18 31 46 51 52 53 51 50 51 51 52 52 52 54 55 59 59 59 59 59 60 61 62 62 63 62 62 62 62 62 61 61 62 63 65 66 67 67 68 68 69 69 69 69 69 69 68 68 68 68 67 67 68 69 70 71 71 71 72 72 73 73 73 73 74 74 74 75 75 75 75 75 75 75 75 75 75 74 74 74 75 75 75 75
20 19 20 20 25 28 30 38 29 22 18 18 29 32 43 43 34 44 51 50 50 50 50 51 51 51 52 53 54 56 59 59 60 60 60 61 62 62 62 62 62 62 61 61 62 62 63 65 66 67 67 67 68 69 68 69 69 69 69 68 68 68 67 66 65 66 66 69 70 71 71 71 72 73 73 73 73 74 74 74 74 74 75 75 75 75 75 75 75 75 74 74 74 74 75 75 74
15 17 18 22 24 26 21 16 22 21 15 18 34 38 36 38 32 36 51 49 49 49 49 50 51 51 51 52 53 54 55 59 60 60 61 61 61 62 62 62 62 61 61 61 62 62 63 64 65 66 67 67 67 68 68 68 68 68 68 68 68 68 67 66 66 65 66 68 69 70 71 71 71 72 72 72 73 73 73 75 74 74 74 75 75 75 75 75 75 74 74 74 74 74 75 75 75
16 18 24 19 20 19 25 21 16 13 14 25 31 33 38 33 33 33 50 49 49 49 49 49 49 50 51 51 52 54 56 58 60 60 60 60 61 61 62 62 62 62 63 61 61 61 62 63 65 65 66 66 67 67 68 68 68 68 68 68 68 67 67 67 67 67 66 66 66 68 69 70 71 72 73 73 72 72 73 73 74 74 74 74 75 75 75 75 75 74 74 74 74 74 74 74 75
18 21 16 19 25 27 20 20 25 16 17 23 26 33 32 36 32 32 52 50 49 49 48 48 48 50 51 51 51 52 53 55 59 60 60 61 61 61 61 61 61 62 62 62 61 60 61 62 64 65 65 66 67 67 68 68 68 68 67 68 68 68 68 67 68 67 65 65 66 66 67 68 70 71 71 72 72 72 72 72 73 73 73 73 74 74 74 75 75 75 74 74 74 74 74 74 74
16 15 15 15 17 23 20 24 23 20 23 21 26 27 29 29 33 38 52 50 50 49 48 48 48 49 50 51 51 52 53 53 55 61 61 61 61 61 61 62 62 62 63 62 61 60 60 61 63 64 65 65 66 66 67 68 68 68 68 68 67 67 67 67 67 67 66 65 66 67 66 67 69 70 71 71 71 72 72 72 72 73 73 73 74 74 74 75 75 74 74 74 74 74 74 74 74
16 15 15 16 15 22 18 18 26 26 22 18 26 27 30 28 37 47 54 52 51 50 48 48 48 48 49 49 50 51 52 52 53 55 60 63 62 62 61 62 62 62 62 63 62 61 60 61 62 63 64 65 65 66 67 68 68 68 67 67 67 67 67 67 66 67 67 65 65 66 66 67 66 68 70 70 71 71 72 72 72 73 73 73 73 74 73 74 74 74 74 73 74 74 74 74 74